User: anonymous   Login
Location: Unspecified
(0.0000°N, 0.0000°E)
Time: 17:19:33
(UTC+00:00)
Language:

GONETS M 11 (M21) - Orbit

View from above orbital plane
View from above orbital plane
View from above satellite
View from above satellite

Ground track
Ground track

The orbit data is extracted from the following two-line orbital elements,

1 40552U 15020A   18112.73357530  .00000017  00000-0  54872-4 0  9998
2 40552  82.4838  86.1309 0017080  21.3460 338.8329 12.42874823138896
Epoch (UTC): 22 April 2018 17:36:20
Eccentricity: 0.0017080
inclination: 82.4838°
perigee height: 1481 km
apogee height: 1508 km
right ascension of ascending node: 86.1309°
argument of perigee: 21.3460°
revolutions per day: 12.42874823
mean anomaly at epoch: 338.8329°
orbit number at epoch: 13889

The dashed part of the orbit path shows where the satellite is in the earth's shadow,  

DLR